Weather History for ESDF - April, 2013

Change the Weather History Date:

Wednesday, April 24, 2013

  Actual Average Record
Temperature  
Mean Temperature 50 °F -  
Max Temperature 60 °F - - ()
Min Temperature 41 °F - - ()
Degree Days  
Heating Degree Days 14    
Moisture  
Dew Point 38 °F    
Average Humidity 62    
Maximum Humidity 82    
Minimum Humidity 36    
Precipitation  
Precipitation 0.01 in - - ()
Sea Level Pressure  
Sea Level Pressure 30.02 in    
Wind  
Wind Speed 10 mph ()    
Max Wind Speed 16 mph    
Max Gust Speed 26 mph    
Visibility 9.0 miles    
Events Rain    
T = Trace of Precipitation, MM = Missing Value Source: Averaged Metar Reports

Daily Weather History Graph

Daily Weather History Graph

Search for Another Location

Airport or City:

Trip Planner

Search our weather history database for the weather conditions in past years. The results will help you decide how hot, cold, wet, or windy it might be!

Date:

Astronomy

Apr. 24, 2013 Rise Set
Actual Time 5:30 AM CEST 8:25 PM CEST
Civil Twilight 4:47 AM CEST 9:08 PM CEST
Nautical Twilight 3:50 AM CEST 10:05 PM CEST
Astronomical Twilight 2:33 AM CEST 11:25 PM CEST
Moon 6:58 PM CEST (4/24) 4:40 AM CEST (4/24)
Length of Visible Light 16h 20m
Length of Day
14h 54m
Waxing Gibbous, 97% of the Moon is Illuminated
Apr 24
Waxing Gibbous
Apr 25
Full
May 2
Last Quarter
May 10
New
May 18
First Quarter

Hourly Weather History & Observations

Time (CEST) Temp. Windchill Dew Point Humidity Pressure Visibility Wind Dir Wind Speed Gust Speed Precip Events Conditions
12:00 AM 46 °F - 35 °F 55% 29.94 in 19 mi West 11.2 mph - -  
12:20 AM 46.4 °F 41.1 °F 33.8 °F 62% 29.92 in 6.2 mi West 11.5 mph - N/A   Unknown
12:50 AM 46.4 °F 41.1 °F 33.8 °F 62% 29.92 in 6.2 mi West 11.5 mph - N/A   Unknown
1:00 AM 45 °F - 35 °F 56% 29.96 in 16 mi West 11.2 mph - -  
1:20 AM 44.6 °F 38.8 °F 33.8 °F 66% 29.95 in 6.2 mi West 11.5 mph - N/A   Unknown
1:50 AM 44.6 °F 39.7 °F 32.0 °F 61% 29.95 in 6.2 mi WSW 9.2 mph - N/A   Unknown
2:00 AM 43 °F - 34 °F 60% 29.98 in 16 mi West 8.9 mph - -  
2:20 AM 44.6 °F 39.2 °F 32.0 °F 61% 29.95 in 6.2 mi West 10.4 mph - N/A   Unknown
2:50 AM 42.8 °F 37.5 °F 32.0 °F 66% 29.98 in 6.2 mi WSW 9.2 mph - N/A   Unknown
3:00 AM 43 °F - 34 °F 60% 30.00 in 15 mi West 11.2 mph - -  
3:20 AM 42.8 °F 37.0 °F 32.0 °F 66% 29.98 in 6.2 mi West 10.4 mph - N/A   Unknown
3:50 AM 42.8 °F 38.0 °F 32.0 °F 66% 29.98 in 6.2 mi West 8.1 mph - N/A   Unknown
4:00 AM 42 °F - 33 °F 62% 30.01 in 15 mi WSW 8.9 mph - -  
4:20 AM 42.8 °F 38.6 °F 33.8 °F 70% 30.01 in 6.2 mi WSW 6.9 mph - N/A   Unknown
4:50 AM 42.8 °F 38.0 °F 33.8 °F 70% 30.01 in 6.2 mi WSW 8.1 mph - N/A   Unknown
5:20 AM 42.8 °F 38.0 °F 33.8 °F 70% 30.01 in 6.2 mi WSW 8.1 mph - N/A   Unknown
5:50 AM 42.8 °F 37.5 °F 35.6 °F 76% 30.04 in 6.2 mi WSW 9.2 mph - N/A   Unknown
6:00 AM 42 °F - 36 °F 70% 30.05 in 9 mi West 8.9 mph - -   Clear
6:20 AM 41.0 °F 34.7 °F 35.6 °F 81% 30.04 in - WSW 10.4 mph - N/A   Clear
6:50 AM 42.8 °F 37.5 °F 35.6 °F 76% 30.04 in - WSW 9.2 mph - N/A   Clear
7:00 AM 43 °F - 36 °F 67% 30.07 in 9 mi WSW 8.9 mph - -   Clear
7:20 AM 42.8 °F 37.0 °F 35.6 °F 76% 30.06 in - WSW 10.4 mph - N/A   Clear
7:50 AM 44.6 °F 39.7 °F 35.6 °F 71% 30.06 in - WSW 9.2 mph - N/A   Clear
8:00 AM 45 °F - 36 °F 62% 30.09 in 12 mi WSW 11.2 mph - -  
8:20 AM 46.4 °F 41.9 °F 37.4 °F 71% 30.06 in - WSW 9.2 mph - N/A   Clear
8:50 AM 48.2 °F - 37.4 °F 66% 30.09 in - WSW 9.2 mph - N/A   Clear
9:00 AM 48 °F - 38 °F 57% 30.10 in 12 mi WSW 11.2 mph - -   Clear
9:20 AM 48.2 °F - 37.4 °F 66% 30.09 in - WSW 11.5 mph - N/A   Clear
9:50 AM 50.0 °F - 39.2 °F 66% 30.09 in 6.2 mi SW 9.2 mph - N/A   Partly Cloudy
10:00 AM 50 °F - 38 °F 54% 30.10 in 12 mi SW 11.2 mph - -   Scattered Clouds
10:20 AM 51.8 °F - 39.2 °F 62% 30.09 in 6.2 mi SW 10.4 mph - N/A   Partly Cloudy
10:50 AM 51.8 °F - 39.2 °F 62% 30.09 in 6.2 mi SW 13.8 mph - N/A   Partly Cloudy
11:20 AM 53.6 °F - 39.2 °F 58% 30.09 in 6.2 mi WSW 10.4 mph - N/A   Partly Cloudy
11:50 AM 53.6 °F - 39.2 °F 58% 30.09 in 6.2 mi SW 15.0 mph - N/A   Scattered Clouds
12:00 PM 53 °F - 39 °F 48% 30.09 in 19 mi SW 13.4 mph - -  
12:20 PM 53.6 °F - 39.2 °F 58% 30.06 in 6.2 mi SW 13.8 mph 25.3 mph N/A   Partly Cloudy
12:50 PM 55.4 °F - 41.0 °F 58% 30.06 in 6.2 mi SW 13.8 mph - N/A   Scattered Clouds
1:00 PM 55 °F - 40 °F 46% 30.08 in 16 mi SW 15.7 mph - -   Scattered Clouds
1:20 PM 53.6 °F - 39.2 °F 58% 30.06 in 6.2 mi SW 16.1 mph - N/A   Scattered Clouds
1:50 PM 57.2 °F - 39.2 °F 51% 30.06 in - SW 12.7 mph - N/A   Clear
2:00 PM 57 °F - 40 °F 41% 30.08 in 16 mi SW 13.4 mph - -  
2:20 PM 55.4 °F - 39.2 °F 54% 30.06 in - SW 12.7 mph - N/A   Clear
2:50 PM 57.2 °F - 39.2 °F 51% 30.04 in - SW 12.7 mph - N/A   Clear
3:00 PM 56 °F - 39 °F 42% 30.06 in 19 mi SSW 13.4 mph - -   Partly Cloudy
3:20 PM 57.2 °F - 39.2 °F 51% 30.04 in - West 16.1 mph - N/A   Clear
3:50 PM 59.0 °F - 39.2 °F 48% 30.04 in - West 13.8 mph 25.3 mph N/A   Clear
4:00 PM 59 °F - 39 °F 36% 30.04 in 19 mi WSW 15.7 mph - -   Partly Cloudy
4:20 PM 59.0 °F - 41.0 °F 51% 30.01 in - WSW 13.8 mph - N/A   Clear
4:50 PM 57.2 °F - 41.0 °F 55% 30.01 in - SW 10.4 mph - N/A   Clear
5:20 PM 57.2 °F - 41.0 °F 55% 30.01 in 6.2 mi SSW 10.4 mph - N/A   Scattered Clouds
5:50 PM 55.4 °F - 41.0 °F 58% 30.01 in 6.2 mi SSW 10.4 mph - N/A   Scattered Clouds
6:00 PM 54 °F - 41 °F 52% 30.00 in 12 mi SSW 8.9 mph - -  
6:20 PM 53.6 °F - 41.0 °F 62% 29.98 in 6.2 mi South 11.5 mph - N/A   Partly Cloudy
6:50 PM 53.6 °F - 41.0 °F 62% 29.98 in - SSW 10.4 mph - N/A   Clear
7:00 PM 53 °F - 42 °F 57% 29.99 in 9 mi SW 11.2 mph - - Rain Drizzle
7:20 PM 53.6 °F - 41.0 °F 62% 29.98 in - SW 10.4 mph - N/A   Clear
7:50 PM 53.6 °F - 41.0 °F 62% 29.95 in 6.2 mi SSW 9.2 mph - N/A   Scattered Clouds
8:00 PM 51 °F - 42 °F 64% 29.97 in 8 mi SSW 8.9 mph - -   Clear
8:20 PM 51.8 °F - 41.0 °F 67% 29.95 in - SSW 9.2 mph - N/A   Clear
8:50 PM 51.8 °F - 41.0 °F 67% 29.95 in 6.2 mi SSW 9.2 mph - N/A   Scattered Clouds
9:00 PM 52 °F - 43 °F 64% 29.96 in 7 mi WSW 11.2 mph - - Rain Light Rain
9:20 PM 55.4 °F - 42.8 °F 63% 29.95 in 6.2 mi West 13.8 mph - N/A   Light Drizzle
9:50 PM 53.6 °F - 44.6 °F 72% 29.95 in 6.2 mi WSW 11.5 mph - N/A Rain Light Rain
10:00 PM 52 °F - 46 °F 73% 29.97 in 6 mi West 11.2 mph - - Rain Light Rain
10:20 PM 51.8 °F - 46.4 °F 82% 29.95 in 6.2 mi WSW 11.5 mph - N/A   Light Drizzle
10:50 PM 51.8 °F - 46.4 °F 82% 29.95 in 6.2 mi WSW 15.0 mph 26.5 mph N/A   Mostly Cloudy
11:20 PM 51.8 °F - 46.4 °F 82% 29.95 in 6.2 mi West 12.7 mph - N/A   Overcast
11:50 PM 51.8 °F - 46.4 °F 82% 29.95 in 6.2 mi West 15.0 mph - N/A   Overcast